STARLINK-1504, 45746

Orbit data source: Space-Track

STARLINK-1504, 45746 is a payload satellite owned by SpaceX/Seattle (US) in LEO that was launched on Sat, 13 Jun 2020 UTC via an FALCON 9 launch vehicle from the Air Force Eastern Test Range (AFETR). Payloads include a variety of satellites, spacecraft, and rockets equipped with specific instruments for various scientific and technological missions. These include communications satellites like Starlink; space stations such as the ISS; scientific satellites like the Hubble; Earth observation satellites from companies like Planet Labs, Umbra, and HawkEye 360; GPS; miniature CubeSats for education and research; and military/defense satellites.

Loading next visibility...
STARLINK-1504 details
Identifier
45746, 2020-038S
Orbit
LEO
Last TLE update23 hours ago
Origin
Flag of USSpaceX/Seattle (US)
ManufacturerSpaceX/Seattle
MissionPartially operational Commercial Communications
Bus & MotorSTARLINK, Unknown motor
Mass260 kg wet, ~248 kg dry
Launch date (UTC)
2020-06-13 (5 years ago)
Launch vehicle
FALCON 9
Launch site
Air Force Eastern Test Range (AFETR)
Object type
Payload
Rocket body
Debris
Shape & HBRBox + 1 Pan, 8.86 m
Radar Cross Section13.562 m², Large (>1 m²)

Expand to show TLE details & history

TLE from 23 hours ago
0 STARLINK-1504
1 45746U 20038S   24360.53683765  .00016735  00000-0  83244-3 0  9993
2 45746  53.0534  37.6214 0000800  76.7907 283.3177 15.17748554251078
Epoch: 2024-12-25T12:53Z
Definitive object data (Epoch: 2024-12-25T12:53:02.772Z)
Latitude0.00002°
Longitude109.8307°
Altitude513.403 km
Speed7.608 km/s
True Right ascension02h 30m 29s
True Declination0° 00' 00"
Sunlit
Object was in full shadow at TLE epoch
Visualization TLE readout
Latitude42.55444°
Longitude-117.85277°
Altitude516.279 km
Speed7.611 km/s
Apparent Right ascension15h 52m 47s
Apparent Declination44° 05' 46"
Sunlit
Object is in full shadow
Visualization observer readout
Local Sidereal Time10:54:09
Azimuth59.265° ENE
Elevation36.317°
Doppler factor1
Orbital elements
Apogee altitude513.47 km
Perigee altitude512.368 km
Semi-major axis6,891.056 km
Eccentricity0.00008
Inclination53.0534°
RAAN37.6214°
Arg. of periapsis76.7907°
True anomaly283.30878°
Mean anomaly283.3177°
Eccentric anomaly283.31324°
Mean motion3.79415 °/min
BSTAR0.00083244
Orbital period94.88 mins
Loading maneuver chart data...

STARLINK-1504 Visibility forecast

Observer location: undefined°, undefined

Span
Click to sort rows by Start time (UTC) header in descending order
Start Az.
Max El. time (UTC)
Max El. Az.
Max El.
End time (UTC)
End Az.
5 mins2024-12-26 13:08:47.429Z273.397° WNW2024-12-26 13:10:47.429Z227.348° WSW24.812°2024-12-26 13:13:47.429Z172.148° S
6 mins2024-12-27 04:33:47.429Z198.251° SSW2024-12-27 04:36:47.429Z113.535° SE32.983°2024-12-27 04:39:47.429Z63.626° ENE
5 mins2024-12-27 06:12:47.429Z278.765° WNW2024-12-27 06:14:47.429Z319.738° NNW25.855°2024-12-27 06:17:47.429Z26.455° NE
5 mins2024-12-27 11:12:47.429Z336.571° NNW2024-12-27 11:14:47.429Z41.841° NE34.081°2024-12-27 11:17:47.429Z103.438° ESE
|